Bangkok, Thailand

12:41 PM +07 on March 25, 2017 (GMT +0700)
Bangkok

Weather History for 48456 - February, 2014

Change the Weather History Date:

Monday, February 10, 2014

  Actual Average Record
Temperature  
Mean Temperature 82 °F -  
Max Temperature 92 °F 92 °F - ()
Min Temperature 71 °F 75 °F - ()
Cooling Degree Days 16    
Growing Degree Days 32 (Base 50)    
Moisture  
Dew Point 69 °F    
Average Humidity 68    
Maximum Humidity 100    
Minimum Humidity 34    
Precipitation  
Precipitation 0.00 in 0.03 in - ()
Sea Level Pressure  
Sea Level Pressure 29.76 in    
Wind  
Wind Speed 4 mph ()    
Max Wind Speed 8 mph    
Max Gust Speed -    
Visibility 5.0 miles    
Events      
T = Trace of Precipitation, MM = Missing Value Source: Averaged Metar Reports

Daily Weather History Graph

Daily Weather History Graph

Search for Another Location

Airport or City:

Trip Planner

Search our weather history database for the weather conditions in past years. The results will help you decide how hot, cold, wet, or windy it might be!

Date:

Astronomy

Feb. 10, 2014 Rise Set
Actual Time 6:42 AM +07 6:20 PM +07
Civil Twilight 6:20 AM +07 6:42 PM +07
Nautical Twilight 5:55 AM +07 7:08 PM +07
Astronomical Twilight 5:30 AM +07 7:33 PM +07
Moon 2:39 PM +07 (2/10) 2:55 AM +07 (2/10)
Length of Visible Light 12h 21m
Length of Day
11h 37m
Waxing Gibbous, 81% of the Moon is Illuminated
Feb 10
Waxing Gibbous
Feb 15
Full
Feb 23
Last Quarter
Mar 1
New
Mar 8
First Quarter

Hourly Weather History & Observations

Time (+07) Temp. Heat Index Dew Point Humidity Pressure Visibility Wind Dir Wind Speed Gust Speed Precip Events Conditions
12:00 AM 77.0 °F - 71.6 °F 83% 29.77 in - South 6.9 mph - N/A   Clear
12:30 AM 77.0 °F - 73.4 °F 89% 29.77 in - South 4.6 mph - N/A   Clear
1:00 AM 77 °F - 72 °F 81% 29.77 in 6 mi South 3.5 mph - -   Clear
1:00 AM 77.0 °F - 71.6 °F 83% 29.77 in - South 3.5 mph - N/A   Clear
1:30 AM 77.0 °F - 73.4 °F 89% 29.77 in - South 5.8 mph - N/A   Clear
2:00 AM 77.0 °F - 71.6 °F 83% 29.74 in - South 5.8 mph - N/A   Clear
2:30 AM 77.0 °F - 71.6 °F 83% 29.74 in - SSW 4.6 mph - N/A   Clear
3:00 AM 75.2 °F - 71.6 °F 89% 29.74 in - SSW 3.5 mph - N/A   Clear
3:30 AM 75.2 °F - 71.6 °F 89% 29.74 in 5.6 mi Calm Calm - N/A   Mostly Cloudy
4:00 AM 75 °F - 72 °F 86% 29.75 in 6 mi Calm Calm - -   Mist
4:00 AM 75.2 °F - 71.6 °F 89% 29.74 in 5.6 mi Calm Calm - N/A   Mostly Cloudy
4:30 AM 75.2 °F - 71.6 °F 89% 29.74 in 5.0 mi ESE 4.6 mph - N/A   Mostly Cloudy
5:00 AM 73.4 °F - 71.6 °F 94% 29.74 in 5.0 mi NE 4.6 mph - N/A   Mostly Cloudy
5:30 AM 73.4 °F - 71.6 °F 94% 29.77 in 4.3 mi ENE 4.6 mph - N/A   Mostly Cloudy
6:00 AM 73.4 °F - 71.6 °F 94% 29.77 in 3.7 mi ENE 4.6 mph - N/A   Mostly Cloudy
6:30 AM 71.6 °F - 69.8 °F 94% 29.77 in 2.5 mi ENE 4.6 mph - N/A   Mostly Cloudy
7:00 AM 72 °F - 71 °F 94% 29.80 in 2 mi East 4.6 mph - -   Mist
7:00 AM 71.6 °F - 71.6 °F 100% 29.80 in 2.2 mi East 4.6 mph - N/A   Mostly Cloudy
7:30 AM 73.4 °F - 71.6 °F 94% 29.80 in 2.5 mi ESE 3.5 mph - N/A   Mostly Cloudy
8:00 AM 73.4 °F - 71.6 °F 94% 29.83 in 1.9 mi ESE 4.6 mph - N/A   Mostly Cloudy
8:30 AM 75.2 °F - 71.6 °F 89% 29.83 in 1.9 mi ESE 5.8 mph - N/A   Mostly Cloudy
9:00 AM 75.2 °F - 73.4 °F 94% 29.86 in 1.9 mi ESE 5.8 mph - N/A   Mostly Cloudy
9:30 AM 77.0 °F - 73.4 °F 89% 29.86 in 2.5 mi SE 4.6 mph - N/A   Mostly Cloudy
10:00 AM 80 °F - 73 °F 74% 29.86 in 3 mi North 3.5 mph - -   Mist
10:00 AM 80.6 °F 85.4 °F 73.4 °F 79% 29.86 in 3.1 mi North 3.5 mph - N/A   Mostly Cloudy
10:30 AM 82.4 °F 87.2 °F 71.6 °F 70% 29.86 in 4.3 mi SSW 4.6 mph - N/A   Mostly Cloudy
11:00 AM 84.2 °F 88.4 °F 69.8 °F 62% 29.83 in 5.0 mi WNW 4.6 mph - N/A   Mostly Cloudy
11:30 AM 84.2 °F 88.4 °F 69.8 °F 62% 29.83 in 5.6 mi NNW 5.8 mph - N/A   Mostly Cloudy
12:00 PM 87.8 °F 92.6 °F 69.8 °F 55% 29.80 in 6.2 mi East 3.5 mph - N/A   Scattered Clouds
12:30 PM 87.8 °F 91.4 °F 68.0 °F 52% 29.80 in 6.2 mi West 4.6 mph - N/A   Scattered Clouds
1:00 PM 90 °F - 67 °F 37% 29.77 in 6 mi SSE 3.5 mph - -   Scattered Clouds
1:00 PM 89.6 °F 93.4 °F 68.0 °F 49% 29.77 in 6.2 mi SSE 3.5 mph - N/A   Scattered Clouds
1:30 PM 89.6 °F 93.4 °F 68.0 °F 49% 29.74 in 6.2 mi North 6.9 mph - N/A   Scattered Clouds
2:00 PM 87.8 °F 87.6 °F 60.8 °F 40% 29.74 in 6.2 mi East 6.9 mph - N/A   Scattered Clouds
2:30 PM 91.4 °F 93.2 °F 64.4 °F 41% 29.71 in 6.2 mi SSE 4.6 mph - N/A   Scattered Clouds
3:00 PM 91.4 °F 94.0 °F 66.2 °F 43% 29.68 in 6.2 mi NNE 4.6 mph - N/A   Scattered Clouds
3:30 PM 93.2 °F 94.9 °F 64.4 °F 38% 29.68 in 6.2 mi ESE 4.6 mph - N/A   Scattered Clouds
4:00 PM 91 °F - 66 °F 34% 29.69 in 6 mi East 4.6 mph - -   Scattered Clouds
4:00 PM 91.4 °F 93.2 °F 64.4 °F 41% 29.68 in 6.2 mi East 4.6 mph - N/A   Scattered Clouds
4:30 PM 91.4 °F 94.0 °F 66.2 °F 43% 29.68 in 6.2 mi SE 5.8 mph - N/A   Scattered Clouds
5:00 PM 89.6 °F 92.2 °F 66.2 °F 46% 29.68 in 6.2 mi ESE 8.1 mph - N/A   Scattered Clouds
5:30 PM 89.6 °F 92.2 °F 66.2 °F 46% 29.68 in 6.2 mi SE 8.1 mph - N/A   Scattered Clouds
6:00 PM 87.8 °F 90.4 °F 66.2 °F 49% 29.71 in 6.2 mi SE 5.8 mph - N/A   Scattered Clouds
6:30 PM 86.0 °F 87.3 °F 64.4 °F 48% 29.71 in 6.2 mi South 5.8 mph - N/A   Scattered Clouds
7:00 PM 85 °F - 64 °F 40% 29.72 in 6 mi SSW 8.1 mph - -   Scattered Clouds
7:00 PM 86.0 °F 87.3 °F 64.4 °F 48% 29.71 in 6.2 mi SSW 8.1 mph - N/A   Scattered Clouds
7:30 PM 84.2 °F 86.6 °F 66.2 °F 55% 29.74 in 6.2 mi South 6.9 mph - N/A   Scattered Clouds
8:00 PM 84.2 °F 85.6 °F 64.4 °F 51% 29.74 in 6.2 mi South 8.1 mph - N/A   Scattered Clouds
8:30 PM 82.4 °F 83.9 °F 64.4 °F 54% 29.77 in 6.2 mi South 6.9 mph - N/A   Scattered Clouds
9:00 PM 80.6 °F 82.7 °F 66.2 °F 61% 29.77 in - South 3.5 mph - N/A   Clear
9:30 PM 80.6 °F 82.7 °F 66.2 °F 61% 29.77 in - SSE 4.6 mph - N/A   Clear
10:00 PM 79 °F - 66 °F 55% 29.80 in 6 mi South 4.6 mph - -   Clear
10:00 PM 78.8 °F - 66.2 °F 65% 29.77 in - South 4.6 mph - N/A   Clear
10:30 PM 78.8 °F - 66.2 °F 65% 29.80 in - SSW 4.6 mph - N/A   Clear
11:00 PM 78.8 °F - 64.4 °F 61% 29.80 in - SSW 5.8 mph - N/A   Clear
11:30 PM 77.0 °F - 64.4 °F 65% 29.80 in - South 3.5 mph - N/A   Clear